Temperature
24 25 24 24 24 24 24 24 24 25 24 24 24 24 23 21 21 21 20 20 20 19 19 19 19 20 21 21 22 22 21 21 20 20 20 19 19 18 18 18 17 17 17 17
25 24 24 24 24 24 24 24 24 24 24 24 24 24 23 21 20 19 19 19 19 18 19 19 19 19 20 21 21 21 21 21 20 20 20 20 19 18 18 18 18 17 17 17
24 23 23 23 23 23 23 23 23 22 23 23 23 23 22 21 20 20 19 18 18 17 17 17 18 18 19 20 20 21 21 21 20 20 20 19 19 18 18 18 17 17 17 17
23 22 23 22 22 22 22 22 21 22 22 23 23 23 23 21 21 20 19 18 17 17 17 17 17 17 18 19 19 20 20 20 19 19 19 19 19 18 18 17 17 17 17 17
22 21 21 21 20 20 21 21 21 21 22 22 23 22 22 21 19 19 18 17 17 16 16 16 16 16 17 18 18 19 19 19 19 18 18 18 18 17 17 16 17 17 17 17
21 20 20 20 20 20 20 21 21 21 21 21 22 22 20 18 17 17 17 17 16 16 16 15 15 15 16 17 17 18 18 18 18 17 17 17 17 17 16 16 16 16 17 17
21 20 20 20 20 20 20 20 20 20 20 20 21 20 17 16 17 16 16 16 15 15 15 15 15 15 15 16 16 16 17 17 17 17 16 16 16 16 16 16 16 16 16 16
20 20 19 19 18 18 19 19 18 17 18 18 19 18 16 16 16 15 15 15 15 14 14 14 14 14 15 15 15 16 16 16 16 16 16 16 16 16 16 16 16 16 16 16
20 19 19 18 18 18 18 18 18 17 17 17 17 17 16 16 16 15 14 14 14 14 14 14 14 14 14 14 15 15 15 15 15 15 16 16 16 16 16 16 16 16 16 16
19 19 18 18 18 18 17 17 17 17 16 16 17 15 14 13 14 14 14 13 13 13 13 13 13 14 14 14 14 15 15 15 15 15 15 15 16 16 16 16 16 16 16 16
18 19 18 18 16 16 16 16 16 16 16 15 15 14 13 12 12 12 12 12 12 12 13 13 13 13 14 14 14 14 15 15 15 15 15 15 16 16 16 16 16 16 16 16
17 19 18 17 16 16 16 15 15 15 16 16 15 13 13 12 11 11 11 11 12 12 12 13 13 13 13 14 14 14 15 15 15 15 15 15 16 16 16 16 16 16 16 16
17 18 18 18 17 16 15 15 16 16 15 15 14 13 13 12 12 12 11 11 12 12 12 12 12 13 13 13 13 14 14 14 14 15 15 15 15 15 15 16 16 16 16 16
17 18 17 16 15 15 14 15 15 16 15 14 13 13 13 12 12 12 11 11 12 12 12 12 12 12 12 13 13 13 14 14 14 14 15 15 15 15 15 15 15 15 15 15
18 17 16 15 15 15 14 14 15 15 14 14 13 13 12 12 12 12 12 12 12 12 12 12 12 12 12 12 13 13 13 13 13 14 14 14 14 14 15 15 15 15 15 15
18 17 16 16 15 15 15 15 15 14 14 14 14 14 13 13 13 13 13 13 13 13 12 12 12 12 12 12 12 12 13 13 13 13 13 13 13 14 14 14 14 14 15 15
17 17 17 17 16 15 16 15 14 14 14 14 14 14 14 14 13 13 13 13 13 13 13 13 12 12 12 12 12 12 12 12 12 13 13 13 13 13 13 13 13 14 14 14
17 17 17 17 16 15 16 15 14 14 14 14 14 14 13 13 13 13 13 13 13 13 13 13 13 13 13 12 12 12 12 12 12 12 12 12 12 12 12 13 13 13 13 14
16 17 17 17 17 17 15 15 15 15 15 15 14 14 14 13 14 15 13 12 12 12 13 13 13 13 13 13 13 13 13 12 12 12 12 12 12 12 12 12 12 13 13 13
15 16 17 17 17 17 17 16 14 14 15 15 14 14 13 14 17 16 13 12 12 13 13 13 13 13 13 13 13 13 13 12 12 11 11 11 12 12 12 12 12 12 12 12
17 16 17 17 17 17 16 14 13 15 16 14 13 13 13 14 14 13 12 12 12 13 13 14 14 14 13 13 13 13 13 12 12 12 11 12 12 12 12 12 12 12 12 12
18 17 17 17 17 17 15 14 15 16 14 13 13 13 12 12 12 12 12 12 13 13 13 14 14 14 14 14 13 13 13 12 12 12 12 11 12 12 12 12 12 12 11 11
17 18 18 17 18 15 14 15 14 13 14 13 13 12 12 12 12 12 12 13 13 13 13 14 14 14 14 14 14 13 13 13 12 12 11 11 11 11 11 11 11 11 11 11
17 15 16 16 16 14 13 13 13 13 13 12 12 12 12 12 12 12 13 13 13 13 13 14 14 14 14 14 14 14 13 13 12 12 11 11 11 11 11 11 11 11 11 11
17 15 16 16 16 14 13 13 13 12 12 12 12 12 12 12 12 12 12 12 12 13 13 13 14 14 14 14 14 14 14 13 12 12 12 11 11 11 11 11 11 11 10 10
16 16 16 17 16 16 15 13 13 12 12 12 12 12 12 11 11 12 12 12 12 12 13 13 14 14 14 14 14 14 14 13 13 12 12 11 11 11 10 10 10 10 10 10
Wind_Speed
1 1 3 5 4 5 6 8 9 7 4 6 7 5 1 4 8 10 11 12 13 14 13 12 11 10 10 13 16 17 17 17 14 12 11 10 9 8 7 7 10 12 12 12
2 4 6 4 3 4 7 9 10 7 4 7 8 7 1 4 7 10 12 14 15 17 17 16 14 11 9 10 13 16 17 16 15 12 9 6 6 5 5 5 8 11 12 12
4 6 6 4 7 7 7 8 10 11 9 7 9 10 6 2 4 9 12 14 15 16 18 17 16 13 10 9 10 11 13 13 13 12 8 7 5 3 3 4 6 8 11 11
6 7 7 7 9 10 8 8 11 12 11 11 8 11 4 1 4 11 15 16 17 17 17 16 16 15 12 9 7 7 8 10 11 12 11 11 7 5 3 2 3 6 9 10
5 9 10 10 10 9 9 12 12 12 13 14 12 12 5 3 8 14 17 17 18 17 17 16 15 14 12 9 5 1 3 6 9 10 12 11 8 5 2 1 3 5 5 7
8 7 9 10 7 7 11 12 11 10 10 13 11 11 3 6 11 15 17 18 18 17 16 14 13 12 11 10 7 5 5 6 8 9 9 10 11 9 6 3 3 4 4 6
4 9 8 11 10 7 12 10 6 5 5 6 4 4 4 9 12 14 16 17 17 16 15 13 13 12 11 11 9 7 8 8 8 9 9 9 9 9 8 6 5 5 5 5
4 4 9 10 9 8 9 8 5 6 6 6 3 1 5 10 12 14 15 16 16 15 14 12 11 10 10 11 10 9 8 8 8 7 7 6 7 5 5 6 6 6 5 5
5 4 5 8 8 8 7 7 5 6 6 5 2 3 3 15 18 19 19 18 17 15 13 11 10 9 9 10 10 9 8 7 6 5 5 5 5 6 6 6 6 5 5 5
4 2 5 6 5 9 7 6 4 4 4 3 2 4 8 18 20 20 19 19 17 14 12 10 9 9 8 9 9 9 8 7 6 5 3 2 3 4 5 5 5 5 5 5
3 2 4 5 9 11 9 6 5 3 3 4 3 3 8 14 16 17 17 16 15 13 11 10 9 8 8 9 9 9 8 8 6 4 3 2 2 3 4 4 4 4 5 6
3 2 3 5 4 5 7 8 6 4 3 3 2 3 7 11 13 14 15 15 14 13 12 10 10 10 10 10 10 10 9 8 6 4 3 2 0 1 3 4 4 5 5 6
2 2 1 3 2 6 7 10 7 3 3 4 3 3 8 12 14 15 15 15 14 14 13 13 12 12 11 10 10 10 10 8 7 5 3 2 1 1 1 3 4 4 5 5
1 5 6 4 4 4 5 9 8 4 3 3 4 5 10 15 15 16 15 15 14 14 14 14 13 12 12 12 11 11 10 9 8 6 5 4 4 3 2 0 1 2 3 4
0 4 6 6 3 3 5 6 7 7 5 3 4 5 9 12 12 12 12 12 13 14 15 14 13 12 12 11 11 11 11 10 9 7 7 6 5 4 3 2 1 0 1 1
1 4 4 4 2 0 3 5 4 4 4 4 3 4 7 9 8 10 12 13 13 13 13 12 12 12 11 11 10 10 10 10 10 9 9 8 7 6 5 4 3 2 1 0
1 3 2 1 1 3 1 1 2 2 3 3 4 5 8 8 9 10 12 12 12 12 12 11 11 10 10 10 10 10 10 10 10 10 10 9 8 8 6 5 4 3 2 1
1 2 2 1 3 2 3 2 1 2 2 2 3 5 7 8 8 5 9 11 12 12 11 11 10 9 9 9 9 9 9 10 10 10 10 9 9 8 7 7 6 5 3 2
1 2 2 2 2 2 3 4 3 3 2 1 4 6 7 9 4 3 11 12 12 11 10 9 8 8 8 8 8 8 9 10 10 10 10 9 9 8 8 8 7 6 5 4
1 3 3 3 3 2 3 6 2 3 3 2 2 5 7 8 2 6 13 13 12 11 9 8 8 7 7 8 8 8 9 10 10 9 9 9 8 8 8 8 7 6 5 4
3 3 4 5 4 2 5 6 5 4 2 3 1 3 5 6 6 9 12 11 11 10 9 9 7 6 6 6 7 8 9 9 8 8 9 9 9 9 8 8 7 7 6 5
3 3 4 3 4 2 9 8 5 0 3 1 1 2 4 6 7 8 10 11 11 11 10 9 8 7 6 6 6 7 7 6 5 6 7 8 8 8 7 8 7 7 7 6
5 4 3 4 1 4 8 5 3 2 2 1 1 2 4 6 7 8 9 10 10 11 10 9 8 7 5 5 5 6 5 4 4 5 6 6 7 7 7 8 8 7 7 6
4 4 5 5 6 7 8 7 5 4 2 1 2 3 4 5 7 8 9 9 10 10 10 9 9 8 7 6 5 5 4 3 3 4 5 5 6 6 7 6 7 7 7 7
5 7 6 6 4 6 10 11 9 6 4 3 2 3 4 5 6 8 8 9 10 10 9 9 9 9 8 7 5 4 3 3 3 3 4 4 5 5 5 6 6 7 7 7
7 8 6 4 6 6 6 11 11 8 6 4 3 2 2 4 6 7 8 8 9 9 9 10 10 10 9 7 5 3 2 2 3 3 3 3 3 3 4 4 5 6 6 8
Wind_Direction
64 40 18 1 345 310 298 286 284 293 319 296 280 275 331 45 34 22 13 4 357 349 343 339 326 304 284 262 245 233 226 216 204 197 197 196 198 202 211 218 221 217 216 212
175 53 18 3 357 306 293 287 289 290 308 291 281 272 182 69 43 25 11 4 357 349 347 346 339 325 299 275 253 240 227 216 204 197 188 183 179 192 206 223 234 228 226 221
59 31 12 15 9 332 305 309 308 302 300 264 275 258 197 121 45 24 15 6 359 353 347 344 341 335 318 294 269 246 229 210 196 181 166 151 147 150 182 212 233 238 235 228
67 35 24 23 18 348 309 339 312 296 283 272 260 275 229 57 19 12 7 2 357 352 348 346 344 342 336 322 299 257 219 202 187 173 166 163 168 174 195 223 246 249 241 234
65 37 30 23 8 350 328 317 299 285 274 271 257 262 258 44 4 359 357 355 353 351 348 351 353 351 354 353 351 333 169 168 167 168 169 162 156 151 150 208 256 257 245 238
78 56 34 8 349 354 327 303 278 258 262 259 263 257 273 30 360 350 350 351 351 350 350 356 2 6 14 23 30 54 98 122 141 148 149 149 147 147 155 193 233 251 240 233
90 60 34 6 352 356 352 335 304 274 256 270 315 274 64 28 6 354 348 349 351 352 354 358 6 13 20 30 38 60 85 97 113 127 133 140 148 157 166 186 215 231 233 225
7 42 28 17 10 341 353 352 336 310 308 312 316 351 82 20 3 357 355 353 354 356 357 1 9 16 24 35 39 51 72 88 99 111 123 139 154 167 176 193 210 215 218 219
11 47 37 24 16 1 351 3 340 299 296 294 325 58 56 5 0 359 357 356 355 352 353 2 12 22 27 37 41 47 58 71 85 100 117 140 160 172 178 190 200 199 201 203
353 33 33 15 13 34 12 346 330 325 320 307 336 27 0 353 350 349 352 351 351 350 354 6 21 28 29 35 39 43 49 57 69 74 92 128 151 162 173 186 192 192 189 191
348 22 62 49 28 10 11 9 348 314 311 320 337 37 9 347 342 344 347 349 353 360 4 16 25 28 27 25 26 29 40 46 49 53 59 80 122 161 176 180 187 189 186 189
8 345 80 80 69 26 19 8 350 346 354 338 338 28 6 350 349 353 354 357 3 9 15 25 31 34 35 29 21 21 31 33 29 26 24 24 36 185 194 183 182 185 184 186
13 332 190 150 118 29 18 10 358 333 338 7 6 4 356 359 2 4 5 7 12 19 26 30 32 32 32 30 22 18 22 24 22 18 11 18 23 284 226 198 186 184 179 175
332 47 47 63 42 4 8 14 19 19 25 30 20 352 356 360 358 0 6 9 15 28 31 31 30 31 30 27 22 21 21 22 22 22 21 28 19 356 340 326 206 184 178 178
292 95 97 104 101 51 37 30 34 46 38 31 3 0 355 347 347 354 5 13 21 26 27 27 27 27 29 29 24 21 24 24 26 32 31 29 27 20 16 19 14 348 177 196
65 132 145 149 168 19 30 27 32 40 31 28 28 39 355 339 350 6 13 14 18 21 22 23 26 27 27 26 24 25 27 28 32 36 33 27 28 32 22 18 26 36 37 249
153 178 210 169 188 244 258 17 14 33 24 356 8 358 340 346 356 2 5 8 11 12 14 18 21 24 26 26 24 27 29 32 36 38 35 31 34 33 26 24 34 36 38 41
195 202 234 236 222 256 96 129 253 291 293 315 321 328 331 327 322 349 11 4 2 2 2 7 11 16 19 24 26 30 35 36 37 35 33 30 29 30 29 30 29 26 26 29
287 230 233 248 262 234 181 198 216 253 261 259 312 331 337 326 277 65 21 4 355 352 350 350 353 2 13 18 17 22 34 38 37 33 30 28 28 29 29 30 25 22 29 31
137 236 243 238 260 257 142 144 164 236 235 164 299 334 345 339 341 22 357 350 350 349 346 344 344 358 12 13 11 20 31 34 33 28 28 28 28 30 28 25 21 21 26 30
206 207 229 239 254 245 141 148 172 222 84 119 303 339 348 356 348 333 336 344 347 347 346 344 345 354 360 359 3 18 26 29 26 25 29 31 30 34 31 28 25 24 30 36
237 223 220 223 240 219 150 167 201 93 94 140 305 342 340 333 330 336 341 345 348 350 351 349 345 347 349 352 355 10 20 19 24 29 34 35 33 32 31 33 31 30 30 37
227 236 255 234 297 95 170 184 166 150 170 173 294 329 325 325 335 340 342 346 349 351 351 347 340 337 344 351 348 357 11 7 15 30 37 38 38 40 34 32 32 32 31 32
212 210 232 247 237 208 200 199 192 195 200 209 281 302 309 321 331 337 342 346 348 350 349 345 340 340 345 347 342 345 352 350 359 22 31 39 39 43 43 37 34 34 29 28
221 191 219 238 225 201 210 208 201 196 203 219 252 281 305 319 329 337 339 345 345 344 345 344 341 337 336 336 336 342 338 331 348 12 25 37 44 44 45 51 41 36 42 27
203 199 203 229 196 197 196 195 193 194 201 214 242 276 308 318 327 333 337 341 341 341 342 342 342 340 337 334 333 343 336 313 332 6 19 27 41 51 48 56 79 68 48 38
Height
1521 1520 1523 1523 1522 1521 1520 1520 1520 1517 1516 1517 1515 1516 1519 1522 1522 1521 1519 1518 1516 1514 1513 1510 1508 1507 1506 1507 1509 1511 1513 1515 1517 1518 1520 1523 1525 1528 1530 1532 1534 1536 1538 1539
1519 1524 1526 1525 1524 1522 1521 1521 1519 1516 1517 1517 1514 1514 1518 1521 1522 1523 1521 1519 1516 1513 1509 1506 1504 1502 1501 1501 1502 1504 1506 1509 1511 1513 1515 1518 1521 1524 1526 1529 1531 1533 1534 1536
1524 1530 1528 1526 1525 1524 1522 1524 1523 1522 1518 1516 1515 1513 1515 1519 1522 1522 1521 1520 1517 1513 1509 1504 1501 1498 1496 1496 1496 1497 1500 1502 1505 1507 1510 1513 1517 1519 1522 1525 1527 1529 1531 1533
1528 1532 1530 1528 1530 1529 1525 1526 1526 1523 1521 1515 1515 1518 1511 1516 1519 1521 1521 1519 1516 1513 1508 1504 1500 1496 1493 1492 1491 1492 1493 1496 1499 1501 1504 1508 1511 1514 1518 1520 1522 1524 1527 1529
1534 1535 1534 1535 1536 1534 1530 1528 1524 1521 1518 1516 1512 1516 1511 1516 1521 1522 1522 1520 1517 1513 1509 1504 1500 1496 1492 1489 1488 1488 1490 1492 1495 1497 1500 1502 1506 1510 1513 1516 1519 1520 1523 1525
1537 1540 1540 1540 1537 1536 1531 1524 1518 1516 1515 1520 1511 1514 1520 1526 1530 1527 1524 1521 1517 1513 1509 1505 1501 1496 1493 1490 1488 1488 1488 1490 1492 1494 1497 1499 1502 1505 1508 1512 1516 1517 1519 1521
1538 1541 1543 1542 1536 1534 1531 1528 1525 1523 1523 1521 1513 1518 1533 1534 1533 1531 1527 1522 1518 1514 1510 1505 1501 1498 1495 1492 1490 1489 1489 1490 1491 1493 1496 1498 1500 1503 1505 1509 1512 1514 1516 1518
1541 1544 1546 1546 1545 1542 1537 1535 1541 1543 1537 1529 1522 1528 1538 1536 1535 1532 1528 1524 1519 1515 1511 1507 1503 1500 1498 1495 1493 1492 1492 1492 1493 1494 1496 1498 1501 1503 1504 1507 1511 1512 1514 1515
1544 1548 1548 1549 1548 1544 1541 1540 1541 1541 1537 1537 1531 1533 1536 1535 1533 1531 1527 1523 1519 1515 1512 1508 1505 1502 1500 1498 1496 1496 1495 1495 1495 1496 1497 1500 1501 1503 1504 1506 1509 1510 1512 1513
1547 1549 1550 1550 1547 1547 1547 1545 1542 1543 1545 1542 1538 1542 1548 1542 1538 1534 1530 1526 1521 1516 1512 1509 1506 1504 1503 1501 1500 1498 1498 1497 1497 1498 1499 1500 1501 1503 1504 1506 1507 1509 1510 1512
1550 1548 1551 1551 1553 1555 1550 1549 1547 1545 1545 1549 1547 1554 1554 1551 1546 1540 1534 1529 1523 1518 1514 1511 1508 1507 1505 1504 1502 1501 1500 1500 1500 1500 1501 1502 1502 1503 1504 1505 1507 1508 1510 1511
1554 1549 1550 1555 1558 1557 1555 1554 1551 1551 1548 1546 1551 1561 1555 1553 1548 1543 1537 1531 1525 1521 1517 1513 1511 1509 1508 1506 1505 1504 1502 1502 1502 1502 1502 1503 1503 1504 1505 1505 1507 1508 1510 1511
1554 1551 1550 1552 1557 1557 1557 1555 1552 1550 1550 1551 1556 1563 1554 1552 1548 1543 1539 1533 1528 1524 1520 1517 1515 1512 1510 1509 1507 1506 1505 1504 1503 1503 1503 1504 1504 1504 1505 1506 1507 1508 1509 1510
1556 1554 1555 1562 1565 1564 1563 1559 1554 1551 1553 1557 1560 1560 1555 1552 1549 1545 1541 1537 1532 1528 1525 1522 1519 1517 1514 1512 1510 1509 1507 1506 1505 1504 1504 1504 1504 1505 1505 1506 1506 1507 1508 1509
1556 1557 1561 1564 1565 1564 1564 1562 1559 1557 1559 1560 1561 1560 1559 1556 1553 1549 1545 1541 1536 1533 1529 1527 1524 1522 1520 1517 1515 1513 1511 1509 1508 1507 1506 1505 1505 1504 1504 1505 1505 1506 1506 1507
1557 1557 1560 1563 1564 1564 1563 1563 1561 1561 1560 1559 1558 1559 1559 1557 1554 1550 1547 1544 1540 1537 1534 1532 1529 1526 1524 1521 1519 1517 1514 1512 1511 1509 1507 1506 1505 1505 1504 1504 1504 1504 1504 1505
1557 1556 1557 1557 1561 1562 1561 1563 1562 1561 1562 1561 1559 1560 1559 1556 1554 1552 1549 1546 1543 1541 1538 1536 1533 1530 1528 1525 1523 1520 1518 1516 1513 1511 1509 1507 1506 1504 1504 1503 1503 1503 1503 1503
1558 1557 1556 1556 1560 1565 1562 1562 1563 1562 1561 1560 1560 1559 1559 1557 1555 1553 1551 1548 1545 1543 1540 1538 1535 1533 1531 1529 1526 1524 1521 1519 1516 1514 1511 1509 1507 1505 1504 1503 1502 1502 1501 1501
1561 1558 1556 1555 1555 1556 1560 1560 1561 1560 1558 1559 1560 1559 1558 1555 1552 1551 1551 1549 1547 1544 1542 1539 1537 1535 1533 1531 1529 1527 1525 1522 1519 1516 1513 1511 1508 1506 1505 1503 1502 1501 1501 1500
1563 1560 1556 1556 1555 1555 1554 1558 1561 1563 1557 1558 1560 1559 1558 1554 1548 1551 1552 1549 1547 1544 1542 1540 1538 1537 1535 1532 1530 1528 1526 1524 1520 1517 1515 1512 1510 1507 1505 1504 1502 1501 1500 1500
1557 1557 1556 1554 1552 1548 1554 1559 1562 1560 1556 1559 1559 1559 1558 1556 1556 1556 1552 1550 1547 1544 1542 1540 1539 1537 1535 1533 1531 1530 1527 1525 1522 1519 1517 1514 1511 1509 1507 1504 1503 1502 1501 1500
1551 1551 1552 1552 1551 1551 1554 1557 1556 1555 1557 1558 1559 1559 1558 1557 1556 1554 1552 1549 1547 1544 1542 1540 1539 1537 1535 1534 1532 1531 1528 1526 1523 1521 1518 1516 1513 1511 1509 1506 1504 1503 1502 1501
1551 1549 1547 1548 1548 1550 1552 1553 1555 1556 1557 1558 1558 1558 1558 1557 1556 1554 1552 1550 1547 1545 1542 1540 1539 1537 1536 1534 1532 1531 1529 1526 1525 1523 1520 1518 1515 1513 1511 1509 1507 1505 1503 1502
1547 1551 1550 1548 1546 1550 1552 1553 1554 1556 1557 1557 1557 1557 1557 1556 1555 1554 1552 1550 1547 1545 1542 1540 1538 1537 1536 1534 1532 1530 1529 1527 1525 1524 1522 1520 1518 1515 1513 1511 1509 1507 1505 1503
1543 1547 1546 1543 1544 1548 1549 1551 1553 1555 1556 1556 1556 1556 1556 1555 1555 1553 1552 1550 1547 1544 1542 1540 1538 1536 1535 1533 1532 1530 1529 1527 1526 1525 1523 1522 1519 1517 1515 1513 1511 1509 1507 1505
1540 1541 1541 1538 1540 1542 1544 1547 1550 1553 1554 1555 1556 1556 1555 1555 1554 1553 1551 1549 1547 1544 1542 1540 1538 1536 1534 1533 1531 1530 1528 1527 1526 1525 1524 1522 1520 1518 1517 1515 1513 1511 1510 1508